Year,Month,Day,Hour,Minute,Value (Times are PST for windgust in km/hr)
2016,03,09,00,01,1.60
2016,03,09,00,02,1.60
2016,03,09,00,08,1.60
2016,03,09,00,09,1.60
2016,03,09,00,29,3.20
2016,03,09,00,30,3.20
2016,03,09,00,31,1.60
2016,03,09,00,32,3.20
2016,03,09,00,33,1.60
2016,03,09,00,50,1.60
2016,03,09,00,51,1.60
2016,03,09,00,55,1.60
2016,03,09,00,56,1.60
2016,03,09,00,57,1.60
2016,03,09,01,02,1.60
2016,03,09,01,03,1.60
2016,03,09,01,11,1.60
2016,03,09,01,12,1.60
2016,03,09,01,19,1.60
2016,03,09,01,20,1.60
2016,03,09,01,23,1.60
2016,03,09,01,24,1.60
2016,03,09,01,25,3.20
2016,03,09,01,26,3.20
2016,03,09,01,27,1.60
2016,03,09,01,28,1.60
2016,03,09,01,29,1.60
2016,03,09,01,31,1.60
2016,03,09,01,32,3.20
2016,03,09,01,33,1.60
2016,03,09,01,35,1.60
2016,03,09,01,36,1.60
2016,03,09,01,49,3.20
2016,03,09,01,50,3.20
2016,03,09,01,51,1.60
2016,03,09,01,52,4.80
2016,03,09,01,53,4.80
2016,03,09,01,54,6.40
2016,03,09,01,55,4.80
2016,03,09,01,56,4.80
2016,03,09,01,57,4.80
2016,03,09,01,58,6.40
2016,03,09,01,59,4.80
2016,03,09,02,00,1.60
2016,03,09,02,01,4.80
2016,03,09,02,02,4.80
2016,03,09,02,03,3.20
2016,03,09,02,04,8.10
2016,03,09,02,05,3.20
2016,03,09,02,06,6.40
2016,03,09,02,07,6.40
2016,03,09,02,08,6.40
2016,03,09,02,09,3.20
2016,03,09,02,10,3.20
2016,03,09,02,11,3.20
2016,03,09,02,12,4.80
2016,03,09,02,13,1.60
2016,03,09,02,14,1.60
2016,03,09,02,15,1.60
2016,03,09,02,16,1.60
2016,03,09,02,17,1.60
2016,03,09,02,18,1.60
2016,03,09,02,19,3.20
2016,03,09,02,20,3.20
2016,03,09,02,21,3.20
2016,03,09,02,22,3.20
2016,03,09,02,23,4.80
2016,03,09,02,24,3.20
2016,03,09,02,25,4.80
2016,03,09,02,26,3.20
2016,03,09,02,27,4.80
2016,03,09,02,28,3.20
2016,03,09,02,29,3.20
2016,03,09,02,30,3.20
2016,03,09,02,31,1.60
2016,03,09,02,33,1.60
2016,03,09,02,36,3.20
2016,03,09,02,37,3.20
2016,03,09,02,38,1.60
2016,03,09,02,39,1.60
2016,03,09,02,41,1.60
2016,03,09,02,42,3.20
2016,03,09,02,43,3.20
2016,03,09,02,44,3.20
2016,03,09,02,45,3.20
2016,03,09,02,46,3.20
2016,03,09,02,47,8.10
2016,03,09,02,48,8.10
2016,03,09,02,49,6.40
2016,03,09,02,50,9.60
2016,03,09,02,51,8.10
2016,03,09,02,52,6.40
2016,03,09,02,53,6.40
2016,03,09,02,54,4.80
2016,03,09,02,55,6.40
2016,03,09,02,56,3.20
2016,03,09,02,57,3.20
2016,03,09,02,58,4.80
2016,03,09,02,59,3.20
2016,03,09,03,00,4.80
2016,03,09,03,01,3.20
2016,03,09,03,02,3.20
2016,03,09,03,03,4.80
2016,03,09,03,04,4.80
2016,03,09,03,05,4.80
2016,03,09,03,06,3.20
2016,03,09,03,07,8.10
2016,03,09,03,08,4.80
2016,03,09,03,09,4.80
2016,03,09,03,10,4.80
2016,03,09,03,11,6.40
2016,03,09,03,12,8.10
2016,03,09,03,13,6.40
2016,03,09,03,14,8.10
2016,03,09,03,15,8.10
2016,03,09,03,16,4.80
2016,03,09,03,17,3.20
2016,03,09,03,18,3.20
2016,03,09,03,19,4.80
2016,03,09,03,20,8.10
2016,03,09,03,21,8.10
2016,03,09,03,22,6.40
2016,03,09,03,23,6.40
2016,03,09,03,24,6.40
2016,03,09,03,25,6.40
2016,03,09,03,26,3.20
2016,03,09,03,27,8.10
2016,03,09,03,28,4.80
2016,03,09,03,29,8.10
2016,03,09,03,30,8.10
2016,03,09,03,31,6.40
2016,03,09,03,32,6.40
2016,03,09,03,33,4.80
2016,03,09,03,34,6.40
2016,03,09,03,35,8.10
2016,03,09,03,36,6.40
2016,03,09,03,37,6.40
2016,03,09,03,38,3.20
2016,03,09,03,39,3.20
2016,03,09,03,40,1.60
2016,03,09,03,42,4.80
2016,03,09,03,43,3.20
2016,03,09,03,44,1.60
2016,03,09,03,45,1.60
2016,03,09,03,46,1.60
2016,03,09,03,47,1.60
2016,03,09,03,48,1.60
2016,03,09,03,49,1.60
2016,03,09,03,50,3.20
2016,03,09,03,51,3.20
2016,03,09,03,52,1.60
2016,03,09,03,53,3.20
2016,03,09,03,54,3.20
2016,03,09,03,55,4.80
2016,03,09,03,56,3.20
2016,03,09,03,57,4.80
2016,03,09,03,58,1.60
2016,03,09,03,59,3.20
2016,03,09,04,00,6.40
2016,03,09,04,01,9.60
2016,03,09,04,02,8.10
2016,03,09,04,03,6.40
2016,03,09,04,04,11.30
2016,03,09,04,05,12.90
2016,03,09,04,06,12.90
2016,03,09,04,07,8.10
2016,03,09,04,08,8.10
2016,03,09,04,09,8.10
2016,03,09,04,10,8.10
2016,03,09,04,11,9.60
2016,03,09,04,12,6.40
2016,03,09,04,13,6.40
2016,03,09,04,14,11.30
2016,03,09,04,15,12.90
2016,03,09,04,16,9.60
2016,03,09,04,17,9.60
2016,03,09,04,18,9.60
2016,03,09,04,19,9.60
2016,03,09,04,20,8.10
2016,03,09,04,21,9.60
2016,03,09,04,22,6.40
2016,03,09,04,23,3.20
2016,03,09,04,24,9.60
2016,03,09,04,25,12.90
2016,03,09,04,26,14.50
2016,03,09,04,27,9.60
2016,03,09,04,28,8.10
2016,03,09,04,29,8.10
2016,03,09,04,30,8.10
2016,03,09,04,31,6.40
2016,03,09,04,32,11.30
2016,03,09,04,33,12.90
2016,03,09,04,34,9.60
2016,03,09,04,35,8.10
2016,03,09,04,36,16.10
2016,03,09,04,37,11.30
2016,03,09,04,38,9.60
2016,03,09,04,39,8.10
2016,03,09,04,40,6.40
2016,03,09,04,41,6.40
2016,03,09,04,42,3.20
2016,03,09,04,43,6.40
2016,03,09,04,44,9.60
2016,03,09,04,45,9.60
2016,03,09,04,46,8.10
2016,03,09,04,47,6.40
2016,03,09,04,48,6.40
2016,03,09,04,49,6.40
2016,03,09,04,50,4.80
2016,03,09,04,51,6.40
2016,03,09,04,52,4.80
2016,03,09,04,53,3.20
2016,03,09,04,54,4.80
2016,03,09,04,55,6.40
2016,03,09,04,56,4.80
2016,03,09,04,57,4.80
2016,03,09,04,58,6.40
2016,03,09,04,59,4.80
2016,03,09,05,00,3.20
2016,03,09,05,01,6.40
2016,03,09,05,02,4.80
2016,03,09,05,03,6.40
2016,03,09,05,04,3.20
2016,03,09,05,05,3.20
2016,03,09,05,06,3.20
2016,03,09,05,07,3.20
2016,03,09,05,08,3.20
2016,03,09,05,09,3.20
2016,03,09,05,10,3.20
2016,03,09,05,11,3.20
2016,03,09,05,12,3.20
2016,03,09,05,13,4.80
2016,03,09,05,14,9.60
2016,03,09,05,15,11.30
2016,03,09,05,16,9.60
2016,03,09,05,17,9.60
2016,03,09,05,18,6.40
2016,03,09,05,19,8.10
2016,03,09,05,20,8.10
2016,03,09,05,21,6.40
2016,03,09,05,22,6.40
2016,03,09,05,23,11.30
2016,03,09,05,24,9.60
2016,03,09,05,25,11.30
2016,03,09,05,26,20.90
2016,03,09,05,27,12.90
2016,03,09,05,28,12.90
2016,03,09,05,29,9.60
2016,03,09,05,30,8.10
2016,03,09,05,31,9.60
2016,03,09,05,32,8.10
2016,03,09,05,33,6.40
2016,03,09,05,34,8.10
2016,03,09,05,35,6.40
2016,03,09,05,36,8.10
2016,03,09,05,37,8.10
2016,03,09,05,38,8.10
2016,03,09,05,39,11.30
2016,03,09,05,40,11.30
2016,03,09,05,41,6.40
2016,03,09,05,42,6.40
2016,03,09,05,43,12.90
2016,03,09,05,44,12.90
2016,03,09,05,45,12.90
2016,03,09,05,46,17.70
2016,03,09,05,47,14.50
2016,03,09,05,48,12.90
2016,03,09,05,49,12.90
2016,03,09,05,50,6.40
2016,03,09,05,51,6.40
2016,03,09,05,52,12.90
2016,03,09,05,53,14.50
2016,03,09,05,54,20.90
2016,03,09,05,55,16.10
2016,03,09,05,56,14.50
2016,03,09,05,57,11.30
2016,03,09,05,58,19.30
2016,03,09,05,59,19.30
2016,03,09,06,00,20.90
2016,03,09,06,01,16.10
2016,03,09,06,02,17.70
2016,03,09,06,03,14.50
2016,03,09,06,04,24.20
2016,03,09,06,05,16.10
2016,03,09,06,06,17.70
2016,03,09,06,07,19.30
2016,03,09,06,08,20.90
2016,03,09,06,09,20.90
2016,03,09,06,10,22.50
2016,03,09,06,11,22.50
2016,03,09,06,12,14.50
2016,03,09,06,13,24.20
2016,03,09,06,14,11.30
2016,03,09,06,15,25.70
2016,03,09,06,16,19.30
2016,03,09,06,17,16.10
2016,03,09,06,18,11.30
2016,03,09,06,19,11.30
2016,03,09,06,20,24.20
2016,03,09,06,21,24.20
2016,03,09,06,22,22.50
2016,03,09,06,23,20.90
2016,03,09,06,24,19.30
2016,03,09,06,25,17.70
2016,03,09,06,26,17.70
2016,03,09,06,27,20.90
2016,03,09,06,28,32.20
2016,03,09,06,29,24.20
2016,03,09,06,30,12.90
2016,03,09,06,31,20.90
2016,03,09,06,32,20.90
2016,03,09,06,33,16.10
2016,03,09,06,34,22.50
2016,03,09,06,35,14.50
2016,03,09,06,36,14.50
2016,03,09,06,37,12.90
2016,03,09,06,38,24.20
2016,03,09,06,39,17.70
2016,03,09,06,40,11.30
2016,03,09,06,41,14.50
2016,03,09,06,42,17.70
2016,03,09,06,43,14.50
2016,03,09,06,44,11.30
2016,03,09,06,45,20.90
2016,03,09,06,46,25.70
2016,03,09,06,47,19.30
2016,03,09,06,48,19.30
2016,03,09,06,49,17.70
2016,03,09,06,50,19.30
2016,03,09,06,51,22.50
2016,03,09,06,52,19.30
2016,03,09,06,53,17.70
2016,03,09,06,54,19.30
2016,03,09,06,55,11.30
2016,03,09,06,56,19.30
2016,03,09,06,57,20.90
2016,03,09,06,58,12.90
2016,03,09,06,59,24.20
2016,03,09,07,00,22.50
2016,03,09,07,01,12.90
2016,03,09,07,02,20.90
2016,03,09,07,03,22.50
2016,03,09,07,04,22.50
2016,03,09,07,05,12.90
2016,03,09,07,06,19.30
2016,03,09,07,07,19.30
2016,03,09,07,08,12.90
2016,03,09,07,09,16.10
2016,03,09,07,10,14.50
2016,03,09,07,11,11.30
2016,03,09,07,12,11.30
2016,03,09,07,13,20.90
2016,03,09,07,14,29.00
2016,03,09,07,15,16.10
2016,03,09,07,16,17.70
2016,03,09,07,17,25.70
2016,03,09,07,18,14.50
2016,03,09,07,19,19.30
2016,03,09,07,20,29.00
2016,03,09,07,21,19.30
2016,03,09,07,22,17.70
2016,03,09,07,23,14.50
2016,03,09,07,24,19.30
2016,03,09,07,25,12.90
2016,03,09,07,26,8.10
2016,03,09,07,27,16.10
2016,03,09,07,28,17.70
2016,03,09,07,29,11.30
2016,03,09,07,30,12.90
2016,03,09,07,31,12.90
2016,03,09,07,32,14.50
2016,03,09,07,33,9.60
2016,03,09,07,34,14.50
2016,03,09,07,35,14.50
2016,03,09,07,36,17.70
2016,03,09,07,37,11.30
2016,03,09,07,38,12.90
2016,03,09,07,39,17.70
2016,03,09,07,40,16.10
2016,03,09,07,41,16.10
2016,03,09,07,42,8.10
2016,03,09,07,43,12.90
2016,03,09,07,44,12.90
2016,03,09,07,45,11.30
2016,03,09,07,46,6.40
2016,03,09,07,47,16.10
2016,03,09,07,48,14.50
2016,03,09,07,49,20.90
2016,03,09,07,50,20.90
2016,03,09,07,51,14.50
2016,03,09,07,52,9.60
2016,03,09,07,53,16.10
2016,03,09,07,54,11.30
2016,03,09,07,55,24.20
2016,03,09,07,56,9.60
2016,03,09,07,57,14.50
2016,03,09,07,58,24.20
2016,03,09,07,59,17.70
2016,03,09,08,00,14.50
2016,03,09,08,01,9.60
2016,03,09,08,02,27.40
2016,03,09,08,03,14.50
2016,03,09,08,04,33.80
2016,03,09,08,05,20.90
2016,03,09,08,06,25.70
2016,03,09,08,07,20.90
2016,03,09,08,08,20.90
2016,03,09,08,09,16.10
2016,03,09,08,10,20.90
2016,03,09,08,11,19.30
2016,03,09,08,12,20.90
2016,03,09,08,13,24.20
2016,03,09,08,14,29.00
2016,03,09,08,15,24.20
2016,03,09,08,16,16.10
2016,03,09,08,17,16.10
2016,03,09,08,18,19.30
2016,03,09,08,19,20.90
2016,03,09,08,20,20.90
2016,03,09,08,21,19.30
2016,03,09,08,22,30.60
2016,03,09,08,23,30.60
2016,03,09,08,24,24.20
2016,03,09,08,25,19.30
2016,03,09,08,26,22.50
2016,03,09,08,27,27.40
2016,03,09,08,28,16.10
2016,03,09,08,29,27.40
2016,03,09,08,30,32.20
2016,03,09,08,31,27.40
2016,03,09,08,32,22.50
2016,03,09,08,33,20.90
2016,03,09,08,34,29.00
2016,03,09,08,35,24.20
2016,03,09,08,36,25.70
2016,03,09,08,37,27.40
2016,03,09,08,38,25.70
2016,03,09,08,39,20.90
2016,03,09,08,40,30.60
2016,03,09,08,41,24.20
2016,03,09,08,42,27.40
2016,03,09,08,43,25.70
2016,03,09,08,44,19.30
2016,03,09,08,45,30.60
2016,03,09,08,46,27.40
2016,03,09,08,47,19.30
2016,03,09,08,48,17.70
2016,03,09,08,49,19.30
2016,03,09,08,50,16.10
2016,03,09,08,51,20.90
2016,03,09,08,52,22.50
2016,03,09,08,53,19.30
2016,03,09,08,54,16.10
2016,03,09,08,55,29.00
2016,03,09,08,56,22.50
2016,03,09,08,57,24.20
2016,03,09,08,58,29.00
2016,03,09,08,59,20.90
2016,03,09,09,00,14.50
2016,03,09,09,01,22.50
2016,03,09,09,02,24.20
2016,03,09,09,03,19.30
2016,03,09,09,04,22.50
2016,03,09,09,05,27.40
2016,03,09,09,06,20.90
2016,03,09,09,07,25.70
2016,03,09,09,08,20.90
2016,03,09,09,09,25.70
2016,03,09,09,10,20.90
2016,03,09,09,11,20.90
2016,03,09,09,12,35.40
2016,03,09,09,13,25.70
2016,03,09,09,14,17.70
2016,03,09,09,15,29.00
2016,03,09,09,16,27.40
2016,03,09,09,17,12.90
2016,03,09,09,18,16.10
2016,03,09,09,19,22.50
2016,03,09,09,20,22.50
2016,03,09,09,21,24.20
2016,03,09,09,22,30.60
2016,03,09,09,23,29.00
2016,03,09,09,24,29.00
2016,03,09,09,25,19.30
2016,03,09,09,26,22.50
2016,03,09,09,27,22.50
2016,03,09,09,28,32.20
2016,03,09,09,29,24.20
2016,03,09,09,30,24.20
2016,03,09,09,31,25.70
2016,03,09,09,32,17.70
2016,03,09,09,33,24.20
2016,03,09,09,34,19.30
2016,03,09,09,35,17.70
2016,03,09,09,36,16.10
2016,03,09,09,37,17.70
2016,03,09,09,38,25.70
2016,03,09,09,39,19.30
2016,03,09,09,40,25.70
2016,03,09,09,41,29.00
2016,03,09,09,42,27.40
2016,03,09,09,43,24.20
2016,03,09,09,44,24.20
2016,03,09,09,45,20.90
2016,03,09,09,46,29.00
2016,03,09,09,47,19.30
2016,03,09,09,48,27.40
2016,03,09,09,49,20.90
2016,03,09,09,50,16.10
2016,03,09,09,51,25.70
2016,03,09,09,52,30.60
2016,03,09,09,53,22.50
2016,03,09,09,54,30.60
2016,03,09,09,55,22.50
2016,03,09,09,56,17.70
2016,03,09,09,57,22.50
2016,03,09,09,58,25.70
2016,03,09,09,59,25.70
2016,03,09,10,00,25.70
2016,03,09,10,01,24.20
2016,03,09,10,02,30.60
2016,03,09,10,03,17.70
2016,03,09,10,04,19.30
2016,03,09,10,05,19.30
2016,03,09,10,06,24.20
2016,03,09,10,07,25.70
2016,03,09,10,08,19.30
2016,03,09,10,09,17.70
2016,03,09,10,10,24.20
2016,03,09,10,11,20.90
2016,03,09,10,12,24.20
2016,03,09,10,13,25.70
2016,03,09,10,14,16.10
2016,03,09,10,15,16.10
2016,03,09,10,16,19.30
2016,03,09,10,17,25.70
2016,03,09,10,18,25.70
2016,03,09,10,19,24.20
2016,03,09,10,20,17.70
2016,03,09,10,21,30.60
2016,03,09,10,22,27.40
2016,03,09,10,23,24.20
2016,03,09,10,24,27.40
2016,03,09,10,25,27.40
2016,03,09,10,26,24.20
2016,03,09,10,27,25.70
2016,03,09,10,28,30.60
2016,03,09,10,29,32.20
2016,03,09,10,30,16.10
2016,03,09,10,31,22.50
2016,03,09,10,32,25.70
2016,03,09,10,33,22.50
2016,03,09,10,34,25.70
2016,03,09,10,35,30.60
2016,03,09,10,36,24.20
2016,03,09,10,37,22.50
2016,03,09,10,38,27.40
2016,03,09,10,39,33.80
2016,03,09,10,40,25.70
2016,03,09,10,41,32.20
2016,03,09,10,42,22.50
2016,03,09,10,43,27.40
2016,03,09,10,44,29.00
2016,03,09,10,45,29.00
2016,03,09,10,46,22.50
2016,03,09,10,47,19.30
2016,03,09,10,48,22.50
2016,03,09,10,49,25.70
2016,03,09,10,50,17.70
2016,03,09,10,51,19.30
2016,03,09,10,52,33.80
2016,03,09,10,53,25.70
2016,03,09,10,54,27.40
2016,03,09,10,55,20.90
2016,03,09,10,56,20.90
2016,03,09,10,57,19.30
2016,03,09,10,58,24.20
2016,03,09,10,59,24.20
2016,03,09,11,00,33.80
2016,03,09,11,01,17.70
2016,03,09,11,02,24.20
2016,03,09,11,03,29.00
2016,03,09,11,04,20.90
2016,03,09,11,05,24.20
2016,03,09,11,06,25.70
2016,03,09,11,07,24.20
2016,03,09,11,08,22.50
2016,03,09,11,09,30.60
2016,03,09,11,10,24.20
2016,03,09,11,11,27.40
2016,03,09,11,12,20.90
2016,03,09,11,13,19.30
2016,03,09,11,14,20.90
2016,03,09,11,15,24.20
2016,03,09,11,16,29.00
2016,03,09,11,17,25.70
2016,03,09,11,18,17.70
2016,03,09,11,19,17.70
2016,03,09,11,20,17.70
2016,03,09,11,21,16.10
2016,03,09,11,22,19.30
2016,03,09,11,23,16.10
2016,03,09,11,24,16.10
2016,03,09,11,25,20.90
2016,03,09,11,26,19.30
2016,03,09,11,27,20.90
2016,03,09,11,28,17.70
2016,03,09,11,29,16.10
2016,03,09,11,30,17.70
2016,03,09,11,31,12.90
2016,03,09,11,32,24.20
2016,03,09,11,33,24.20
2016,03,09,11,34,14.50
2016,03,09,11,35,12.90
2016,03,09,11,36,14.50
2016,03,09,11,37,17.70
2016,03,09,11,38,14.50
2016,03,09,11,39,12.90
2016,03,09,11,40,19.30
2016,03,09,11,41,14.50
2016,03,09,11,42,17.70
2016,03,09,11,43,20.90
2016,03,09,11,44,16.10
2016,03,09,11,45,17.70
2016,03,09,11,46,20.90
2016,03,09,11,47,20.90
2016,03,09,11,48,20.90
2016,03,09,11,49,17.70
2016,03,09,11,50,20.90
2016,03,09,11,51,20.90
2016,03,09,11,52,14.50
2016,03,09,11,53,17.70
2016,03,09,11,54,20.90
2016,03,09,11,55,14.50
2016,03,09,11,56,16.10
2016,03,09,11,57,19.30
2016,03,09,11,58,14.50
2016,03,09,11,59,14.50
2016,03,09,12,00,16.10
2016,03,09,12,01,12.90
2016,03,09,12,02,12.90
2016,03,09,12,03,17.70
2016,03,09,12,04,14.50
2016,03,09,12,05,14.50
2016,03,09,12,06,19.30
2016,03,09,12,07,16.10
2016,03,09,12,08,20.90
2016,03,09,12,09,19.30
2016,03,09,12,10,14.50
2016,03,09,12,11,19.30
2016,03,09,12,12,16.10
2016,03,09,12,13,11.30
2016,03,09,12,14,30.60
2016,03,09,12,15,19.30
2016,03,09,12,16,19.30
2016,03,09,12,17,16.10
2016,03,09,12,18,16.10
2016,03,09,12,19,20.90
2016,03,09,12,20,14.50
2016,03,09,12,21,14.50
2016,03,09,12,22,11.30
2016,03,09,12,23,19.30
2016,03,09,12,24,11.30
2016,03,09,12,25,9.60
2016,03,09,12,26,14.50
2016,03,09,12,27,14.50
2016,03,09,12,28,14.50
2016,03,09,12,29,14.50
2016,03,09,12,30,14.50
2016,03,09,12,31,17.70
2016,03,09,12,32,14.50
2016,03,09,12,33,11.30
2016,03,09,12,34,14.50
2016,03,09,12,35,14.50
2016,03,09,12,36,14.50
2016,03,09,12,37,17.70
2016,03,09,12,38,16.10
2016,03,09,12,39,17.70
2016,03,09,12,40,16.10
2016,03,09,12,41,16.10
2016,03,09,12,42,14.50
2016,03,09,12,43,14.50
2016,03,09,12,44,8.10
2016,03,09,12,45,11.30
2016,03,09,12,46,16.10
2016,03,09,12,47,12.90
2016,03,09,12,48,12.90
2016,03,09,12,49,11.30
2016,03,09,12,50,16.10
2016,03,09,12,51,12.90
2016,03,09,12,52,20.90
2016,03,09,12,53,9.60
2016,03,09,12,54,9.60
2016,03,09,12,55,12.90
2016,03,09,12,56,16.10
2016,03,09,12,57,19.30
2016,03,09,12,58,17.70
2016,03,09,12,59,17.70
2016,03,09,13,00,14.50
2016,03,09,13,01,12.90
2016,03,09,13,02,11.30
2016,03,09,13,03,14.50
2016,03,09,13,04,11.30
2016,03,09,13,05,17.70
2016,03,09,13,06,19.30
2016,03,09,13,07,19.30
2016,03,09,13,08,12.90
2016,03,09,13,09,11.30
2016,03,09,13,10,9.60
2016,03,09,13,11,12.90
2016,03,09,13,12,14.50
2016,03,09,13,13,11.30
2016,03,09,13,14,14.50
2016,03,09,13,15,17.70
2016,03,09,13,16,12.90
2016,03,09,13,17,9.60
2016,03,09,13,18,9.60
2016,03,09,13,19,9.60
2016,03,09,13,20,9.60
2016,03,09,13,21,14.50
2016,03,09,13,22,14.50
2016,03,09,13,23,8.10
2016,03,09,13,24,9.60
2016,03,09,13,25,9.60
2016,03,09,13,26,9.60
2016,03,09,13,27,12.90
2016,03,09,13,28,8.10
2016,03,09,13,29,9.60
2016,03,09,13,30,6.40
2016,03,09,13,31,8.10
2016,03,09,13,32,8.10
2016,03,09,13,33,8.10
2016,03,09,13,34,8.10
2016,03,09,13,35,9.60
2016,03,09,13,36,12.90
2016,03,09,13,37,8.10
2016,03,09,13,38,9.60
2016,03,09,13,39,9.60
2016,03,09,13,40,8.10
2016,03,09,13,41,6.40
2016,03,09,13,42,8.10
2016,03,09,13,43,8.10
2016,03,09,13,44,8.10
2016,03,09,13,45,6.40
2016,03,09,13,46,6.40
2016,03,09,13,47,6.40
2016,03,09,13,48,3.20
2016,03,09,13,49,3.20
2016,03,09,13,50,1.60
2016,03,09,13,51,6.40
2016,03,09,13,52,6.40
2016,03,09,13,53,3.20
2016,03,09,13,54,4.80
2016,03,09,13,55,3.20
2016,03,09,13,56,3.20
2016,03,09,13,57,4.80
2016,03,09,13,58,4.80
2016,03,09,13,59,6.40
2016,03,09,14,00,6.40
2016,03,09,14,01,6.40
2016,03,09,14,02,6.40
2016,03,09,14,03,4.80
2016,03,09,14,04,6.40
2016,03,09,14,05,4.80
2016,03,09,14,06,4.80
2016,03,09,14,07,4.80
2016,03,09,14,08,4.80
2016,03,09,14,09,6.40
2016,03,09,14,10,6.40
2016,03,09,14,11,11.30
2016,03,09,14,12,8.10
2016,03,09,14,13,4.80
2016,03,09,14,14,4.80
2016,03,09,14,15,3.20
2016,03,09,14,16,4.80
2016,03,09,14,17,3.20
2016,03,09,14,18,6.40
2016,03,09,14,19,6.40
2016,03,09,14,20,6.40
2016,03,09,14,21,6.40
2016,03,09,14,22,8.10
2016,03,09,14,23,8.10
2016,03,09,14,24,4.80
2016,03,09,14,25,3.20
2016,03,09,14,26,3.20
2016,03,09,14,27,3.20
2016,03,09,14,28,4.80
2016,03,09,14,29,3.20
2016,03,09,14,30,1.60
2016,03,09,14,31,3.20
2016,03,09,14,32,1.60
2016,03,09,14,33,3.20
2016,03,09,14,34,4.80
2016,03,09,14,35,4.80
2016,03,09,14,36,3.20
2016,03,09,14,37,3.20
2016,03,09,14,38,1.60
2016,03,09,14,39,1.60
2016,03,09,14,40,1.60
2016,03,09,14,41,1.60
2016,03,09,14,42,1.60
2016,03,09,14,43,3.20
2016,03,09,14,44,6.40
2016,03,09,14,45,1.60
2016,03,09,14,46,4.80
2016,03,09,14,47,1.60
2016,03,09,14,48,6.40
2016,03,09,14,49,6.40
2016,03,09,14,50,6.40
2016,03,09,14,51,8.10
2016,03,09,14,52,4.80
2016,03,09,14,53,6.40
2016,03,09,14,54,4.80
2016,03,09,14,55,4.80
2016,03,09,14,56,9.60
2016,03,09,14,57,9.60
2016,03,09,14,58,6.40
2016,03,09,14,59,12.90
2016,03,09,15,00,9.60
2016,03,09,15,01,8.10
2016,03,09,15,02,8.10
2016,03,09,15,03,8.10
2016,03,09,15,04,6.40
2016,03,09,15,05,9.60
2016,03,09,15,06,9.60
2016,03,09,15,07,9.60
2016,03,09,15,08,8.10
2016,03,09,15,09,8.10
2016,03,09,15,10,8.10
2016,03,09,15,11,8.10
2016,03,09,15,12,6.40
2016,03,09,15,13,8.10
2016,03,09,15,14,8.10
2016,03,09,15,15,6.40
2016,03,09,15,16,8.10
2016,03,09,15,17,9.60
2016,03,09,15,18,9.60
2016,03,09,15,19,9.60
2016,03,09,15,20,9.60
2016,03,09,15,21,9.60
2016,03,09,15,22,9.60
2016,03,09,15,23,17.70
2016,03,09,15,24,16.10
2016,03,09,15,25,20.90
2016,03,09,15,26,17.70
2016,03,09,15,27,22.50
2016,03,09,15,28,14.50
2016,03,09,15,29,14.50
2016,03,09,15,30,9.60
2016,03,09,15,31,17.70
2016,03,09,15,32,9.60
2016,03,09,15,33,12.90
2016,03,09,15,34,22.50
2016,03,09,15,35,17.70
2016,03,09,15,36,14.50
2016,03,09,15,37,4.80
2016,03,09,15,38,14.50
2016,03,09,15,39,19.30
2016,03,09,15,40,14.50
2016,03,09,15,41,19.30
2016,03,09,15,42,19.30
2016,03,09,15,43,27.40
2016,03,09,15,44,30.60
2016,03,09,15,45,14.50
2016,03,09,15,46,19.30
2016,03,09,15,47,19.30
2016,03,09,15,48,14.50
2016,03,09,15,49,14.50
2016,03,09,15,50,16.10
2016,03,09,15,51,14.50
2016,03,09,15,52,17.70
2016,03,09,15,53,12.90
2016,03,09,15,54,11.30
2016,03,09,15,55,16.10
2016,03,09,15,56,16.10
2016,03,09,15,57,16.10
2016,03,09,15,58,9.60
2016,03,09,15,59,22.50
2016,03,09,16,00,16.10
2016,03,09,16,01,16.10
2016,03,09,16,02,20.90
2016,03,09,16,03,29.00
2016,03,09,16,04,16.10
2016,03,09,16,05,20.90
2016,03,09,16,06,25.70
2016,03,09,16,07,27.40
2016,03,09,16,08,25.70
2016,03,09,16,09,19.30
2016,03,09,16,10,20.90
2016,03,09,16,11,19.30
2016,03,09,16,12,32.20
2016,03,09,16,13,33.80
2016,03,09,16,14,43.50
2016,03,09,16,15,32.20
2016,03,09,16,16,20.90
2016,03,09,16,17,25.70
2016,03,09,16,18,20.90
2016,03,09,16,19,19.30
2016,03,09,16,20,20.90
2016,03,09,16,21,16.10
2016,03,09,16,22,25.70
2016,03,09,16,23,24.20
2016,03,09,16,24,46.70
2016,03,09,16,25,30.60
2016,03,09,16,26,35.40
2016,03,09,16,27,25.70
2016,03,09,16,28,22.50
2016,03,09,16,29,17.70
2016,03,09,16,30,40.20
2016,03,09,16,31,51.50
2016,03,09,16,32,38.60
2016,03,09,16,33,33.80
2016,03,09,16,34,25.70
2016,03,09,16,35,17.70
2016,03,09,16,36,33.80
2016,03,09,16,37,25.70
2016,03,09,16,38,32.20
2016,03,09,16,39,24.20
2016,03,09,16,40,30.60
2016,03,09,16,41,33.80
2016,03,09,16,42,38.60
2016,03,09,16,43,25.70
2016,03,09,16,44,29.00
2016,03,09,16,45,45.10
2016,03,09,16,46,37.00
2016,03,09,16,47,27.40
2016,03,09,16,48,32.20
2016,03,09,16,49,41.80
2016,03,09,16,50,38.60
2016,03,09,16,51,38.60
2016,03,09,16,52,33.80
2016,03,09,16,53,30.60
2016,03,09,16,54,43.50
2016,03,09,16,55,38.60
2016,03,09,16,56,35.40
2016,03,09,16,57,40.20
2016,03,09,16,58,43.50
2016,03,09,16,59,45.10
2016,03,09,17,00,46.70
2016,03,09,17,01,53.10
2016,03,09,17,02,29.00
2016,03,09,17,03,27.40
2016,03,09,17,04,22.50
2016,03,09,17,05,32.20
2016,03,09,17,06,41.80
2016,03,09,17,07,27.40
2016,03,09,17,08,17.70
2016,03,09,17,09,37.00
2016,03,09,17,10,24.20
2016,03,09,17,11,30.60
2016,03,09,17,12,33.80
2016,03,09,17,13,29.00
2016,03,09,17,14,24.20
2016,03,09,17,15,35.40
2016,03,09,17,16,30.60
2016,03,09,17,17,37.00
2016,03,09,17,18,40.20
2016,03,09,17,19,25.70
2016,03,09,17,20,38.60
2016,03,09,17,21,40.20
2016,03,09,17,22,53.10
2016,03,09,17,23,37.00
2016,03,09,17,24,46.70
2016,03,09,17,25,43.50
2016,03,09,17,26,40.20
2016,03,09,17,27,37.00
2016,03,09,17,28,35.40
2016,03,09,17,29,37.00
2016,03,09,17,30,32.20
2016,03,09,17,31,32.20
2016,03,09,17,32,37.00
2016,03,09,17,33,35.40
2016,03,09,17,34,30.60
2016,03,09,17,35,25.70
2016,03,09,17,36,32.20
2016,03,09,17,37,25.70
2016,03,09,17,38,33.80
2016,03,09,17,39,45.10
2016,03,09,17,40,38.60
2016,03,09,17,41,33.80
2016,03,09,17,42,30.60
2016,03,09,17,43,25.70
2016,03,09,17,44,29.00
2016,03,09,17,45,30.60
2016,03,09,17,46,38.60
2016,03,09,17,47,41.80
2016,03,09,17,48,32.20
2016,03,09,17,49,33.80
2016,03,09,17,50,25.70
2016,03,09,17,51,29.00
2016,03,09,17,52,22.50
2016,03,09,17,53,25.70
2016,03,09,17,54,27.40
2016,03,09,17,55,32.20
2016,03,09,17,56,27.40
2016,03,09,17,57,27.40
2016,03,09,17,58,24.20
2016,03,09,17,59,29.00
2016,03,09,18,00,27.40
2016,03,09,18,01,29.00
2016,03,09,18,02,20.90
2016,03,09,18,03,20.90
2016,03,09,18,04,24.20
2016,03,09,18,05,29.00
2016,03,09,18,06,25.70
2016,03,09,18,07,27.40
2016,03,09,18,08,25.70
2016,03,09,18,09,25.70
2016,03,09,18,10,24.20
2016,03,09,18,11,37.00
2016,03,09,18,12,38.60
2016,03,09,18,13,29.00
2016,03,09,18,14,30.60
2016,03,09,18,15,22.50
2016,03,09,18,16,22.50
2016,03,09,18,17,22.50
2016,03,09,18,18,30.60
2016,03,09,18,19,25.70
2016,03,09,18,20,20.90
2016,03,09,18,21,17.70
2016,03,09,18,22,32.20
2016,03,09,18,23,25.70
2016,03,09,18,24,20.90
2016,03,09,18,25,20.90
2016,03,09,18,26,20.90
2016,03,09,18,27,19.30
2016,03,09,18,28,25.70
2016,03,09,18,29,19.30
2016,03,09,18,30,14.50
2016,03,09,18,31,16.10
2016,03,09,18,32,12.90
2016,03,09,18,33,16.10
2016,03,09,18,34,14.50
2016,03,09,18,35,17.70
2016,03,09,18,36,20.90
2016,03,09,18,37,19.30
2016,03,09,18,38,16.10
2016,03,09,18,39,11.30
2016,03,09,18,40,14.50
2016,03,09,18,41,17.70
2016,03,09,18,42,12.90
2016,03,09,18,43,12.90
2016,03,09,18,44,19.30
2016,03,09,18,45,14.50
2016,03,09,18,46,12.90
2016,03,09,18,47,9.60
2016,03,09,18,48,11.30
2016,03,09,18,49,11.30
2016,03,09,18,50,12.90
2016,03,09,18,51,12.90
2016,03,09,18,52,17.70
2016,03,09,18,53,16.10
2016,03,09,18,54,14.50
2016,03,09,18,55,14.50
2016,03,09,18,56,11.30
2016,03,09,18,57,11.30
2016,03,09,18,58,9.60